Voltar ao catálogo

STARLINK-34751

AtivoComunicaçõesVLEO
NORAD 65338·PAYLOAD·🇺🇸 United States

Lançado Aug 27, 2025 de Cape Canaveral Space Force Station

Loading…

Próximas Passagens (próximas 24 horas)

TLE

AtualizadoSource: CelesTrak SupGP

Época: Sep 14, 2026, 21:32 UTC

1 65338C 25189R   26257.89770833  .00035713  00000+0  11489-2 0  2577
2 65338  53.1597  46.4763 0001119  78.3054 341.6166 15.31672447    14

Acompanhe STARLINK-34751 em tempo real com AllMySat

Download on the App Store